| time (UTC) | temp C | wind direction | speed KPH | gust KPH | rain 1hr cm | rain 24hr cm | rain mn cm | humidity % | barometer mb |
| 20260507052543 | 10 | 312 | 1.6 | 6.4 | 0.00 | 0.00 | 0.00 | 96 | 1019.6 |
| 20260507052045 | 9 | 312 | 3.2 | 6.4 | 0.00 | 0.00 | 0.00 | 96 | 1019.6 |
| 20260507051552 | 9 | 304 | 3.2 | 4.8 | 0.00 | 0.00 | 0.00 | 95 | 1019.6 |
| 20260507051044 | 9 | 304 | 3.2 | 6.4 | 0.00 | 0.00 | 0.00 | 95 | 1019.6 |
| 20260507050544 | 9 | 303 | 3.2 | 8.0 | 0.00 | 0.00 | 0.00 | 95 | 1019.6 |
| 20260507050052 | 9 | 303 | 3.2 | 8.0 | 0.00 | 0.00 | 0.00 | 95 | 1019.6 |
| 20260507045547 | 9 | 304 | 3.2 | 8.0 | 0.00 | 0.00 | 0.00 | 96 | 1019.7 |
| 20260507045045 | 9 | 304 | 3.2 | 8.0 | 0.00 | 0.00 | 0.00 | 96 | 1019.7 |
| 20260507044559 | 9 | 304 | 3.2 | 8.0 | 0.00 | 0.00 | 0.00 | 96 | 1019.6 |
| 20260507044043 | 9 | 306 | 4.8 | 9.7 | 0.00 | 0.00 | 0.00 | 96 | 1019.6 |
| 20260507043543 | 9 | 310 | 4.8 | 12.9 | 0.00 | 0.00 | 0.00 | 96 | 1019.7 |
| 20260507043056 | 10 | 311 | 6.4 | 12.9 | 0.00 | 0.00 | 0.00 | 95 | 1019.5 |
| 20260507042544 | 10 | 309 | 8.0 | 12.9 | 0.00 | 0.00 | 0.00 | 95 | 1019.5 |
| 20260507042047 | 10 | 313 | 8.0 | 12.9 | 0.00 | 0.00 | 0.00 | 95 | 1019.5 |
| 20260507041550 | 10 | 314 | 8.0 | 17.7 | 0.00 | 0.00 | 0.00 | 95 | 1019.4 |
| 20260507041045 | 10 | 312 | 11.3 | 17.7 | 0.00 | 0.00 | 0.00 | 95 | 1019.3 |
| 20260507040547 | 10 | 309 | 11.3 | 17.7 | 0.00 | 0.00 | 0.00 | 95 | 1019.3 |
| 20260507040051 | 10 | 315 | 9.7 | 16.1 | 0.00 | 0.00 | 0.00 | 95 | 1019.2 |
| 20260507035544 | 10 | 309 | 11.3 | 16.1 | 0.00 | 0.00 | 0.00 | 95 | 1019.3 |
| 20260507035044 | 10 | 294 | 8.0 | 14.5 | 0.00 | 0.00 | 0.00 | 95 | 1019.2 |
| 20260507034551 | 10 | 315 | 8.0 | 14.5 | 0.00 | 0.00 | 0.00 | 95 | 1019.1 |
| 20260507034044 | 10 | 306 | 8.0 | 14.5 | 0.00 | 0.00 | 0.00 | 95 | 1019.3 |
| 20260507033546 | 10 | 309 | 8.0 | 14.5 | 0.00 | 0.00 | 0.00 | 95 | 1019.3 |
| 20260507033048 | 10 | 320 | 9.7 | 14.5 | 0.00 | 0.00 | 0.00 | 95 | 1019.1 |
| 20260507032544 | 10 | 314 | 9.7 | 14.5 | 0.00 | 0.00 | 0.00 | 95 | 1019.1 |
| 20260507032046 | 10 | 312 | 4.8 | 14.5 | 0.00 | 0.00 | 0.00 | 95 | 1019.1 |
| 20260507031547 | 10 | 315 | 8.0 | 14.5 | 0.00 | 0.00 | 0.00 | 95 | 1019.1 |
| 20260507031044 | 10 | 315 | 9.7 | 14.5 | 0.00 | 0.00 | 0.00 | 95 | 1018.9 |
| 20260507030548 | 10 | 316 | 9.7 | 14.5 | 0.00 | 0.00 | 0.00 | 95 | 1018.9 |
| 20260507030054 | 10 | 309 | 6.4 | 16.1 | 0.00 | 0.00 | 0.00 | 95 | 1018.9 |
| 20260507025547 | 10 | 316 | 9.7 | 17.7 | 0.00 | 0.00 | 0.00 | 95 | 1018.9 |
| 20260507025044 | 10 | 307 | 11.3 | 17.7 | 0.00 | 0.00 | 0.00 | 95 | 1018.9 |
| 20260507024554 | 10 | 295 | 9.7 | 17.7 | 0.00 | 0.00 | 0.00 | 95 | 1018.8 |
| 20260507024045 | 10 | 304 | 11.3 | 17.7 | 0.00 | 0.00 | 0.00 | 94 | 1018.8 |
| 20260507023544 | 10 | 308 | 11.3 | 17.7 | 0.00 | 0.00 | 0.00 | 94 | 1018.7 |
| 20260507023054 | 10 | 313 | 11.3 | 17.7 | 0.00 | 0.00 | 0.00 | 94 | 1018.8 |
| 20260507022544 | 10 | 311 | 11.3 | 17.7 | 0.00 | 0.00 | 0.00 | 94 | 1018.7 |
| 20260507022043 | 11 | 299 | 12.9 | 17.7 | 0.00 | 0.00 | 0.00 | 94 | 1018.8 |
| 20260507021549 | 11 | 309 | 11.3 | 17.7 | 0.00 | 0.00 | 0.00 | 94 | 1018.8 |
| 20260507021044 | 11 | 315 | 9.7 | 20.9 | 0.00 | 0.00 | 0.00 | 94 | 1018.8 |
| 20260507020544 | 11 | 318 | 12.9 | 20.9 | 0.00 | 0.00 | 0.00 | 93 | 1018.8 |
| 20260507020052 | 11 | 303 | 11.3 | 19.3 | 0.00 | 0.00 | 0.00 | 93 | 1018.9 |
| 20260507015544 | 11 | 300 | 11.3 | 19.3 | 0.00 | 0.00 | 0.00 | 93 | 1018.9 |
| 20260507015043 | 11 | 303 | 11.3 | 17.7 | 0.00 | 0.00 | 0.00 | 93 | 1018.9 |
| 20260507014550 | 11 | 300 | 9.7 | 16.1 | 0.00 | 0.00 | 0.00 | 92 | 1018.9 |
| 20260507014044 | 11 | 308 | 9.7 | 16.1 | 0.00 | 0.00 | 0.00 | 91 | 1018.9 |
| 20260507013544 | 12 | 301 | 8.0 | 16.1 | 0.00 | 0.00 | 0.00 | 91 | 1018.9 |
| 20260507013057 | 12 | 292 | 9.7 | 16.1 | 0.00 | 0.00 | 0.00 | 90 | 1018.9 |
| 20260507012543 | 12 | 300 | 9.7 | 16.1 | 0.00 | 0.00 | 0.00 | 90 | 1018.9 |
| 20260507012044 | 12 | 305 | 6.4 | 16.1 | 0.00 | 0.00 | 0.00 | 90 | 1018.9 |
| 20260507011553 | 12 | 319 | 8.0 | 16.1 | 0.00 | 0.00 | 0.00 | 90 | 1018.9 |
| 20260507011046 | 12 | 300 | 11.3 | 16.1 | 0.00 | 0.00 | 0.00 | 90 | 1018.9 |
| 20260507010544 | 12 | 307 | 6.4 | 19.3 | 0.00 | 0.00 | 0.00 | 90 | 1018.9 |
| 20260507010048 | 12 | 305 | 11.3 | 19.3 | 0.00 | 0.00 | 0.00 | 89 | 1018.9 |
| 20260507005544 | 12 | 309 | 9.7 | 19.3 | 0.00 | 0.00 | 0.00 | 88 | 1018.9 |
| 20260507005044 | 12 | 314 | 11.3 | 19.3 | 0.00 | 0.00 | 0.00 | 87 | 1019.0 |
| 20260507004552 | 13 | 311 | 12.9 | 17.7 | 0.00 | 0.00 | 0.00 | 87 | 1018.9 |
| 20260507004045 | 13 | 312 | 11.3 | 17.7 | 0.00 | 0.00 | 0.00 | 87 | 1018.8 |
| 20260507003547 | 13 | 308 | 12.9 | 17.7 | 0.00 | 0.00 | 0.00 | 87 | 1018.7 |
| 20260507003051 | 13 | 305 | 12.9 | 17.7 | 0.00 | 0.00 | 0.00 | 86 | 1018.7 |
| 20260507002544 | 13 | 306 | 9.7 | 16.1 | 0.00 | 0.00 | 0.00 | 86 | 1018.5 |
| 20260507002043 | 13 | 317 | 11.3 | 16.1 | 0.00 | 0.00 | 0.00 | 86 | 1018.7 |
| 20260507001548 | 13 | 298 | 9.7 | 17.7 | 0.00 | 0.00 | 0.00 | 85 | 1018.7 |
| 20260507001044 | 13 | 316 | 9.7 | 17.7 | 0.00 | 0.00 | 0.00 | 85 | 1018.7 |
| 20260507000546 | 13 | 314 | 9.7 | 17.7 | 0.00 | 0.00 | 0.00 | 84 | 1018.6 |
| 20260507000053 | 14 | 305 | 8.0 | 20.9 | 0.00 | 0.00 | 0.00 | 84 | 1018.7 |
| 20260506235543 | 14 | 304 | 8.0 | 20.9 | 0.00 | 0.00 | 0.00 | 83 | 1018.7 |
| 20260506235048 | 14 | 302 | 12.9 | 20.9 | 0.00 | 0.00 | 0.00 | 82 | 1018.7 |
| 20260506234555 | 15 | 298 | 6.4 | 14.5 | 0.00 | 0.00 | 0.00 | 81 | 1018.6 |
| 20260506234048 | 15 | 298 | 8.0 | 12.9 | 0.00 | 0.00 | 0.00 | 81 | 1018.6 |
| 20260506233544 | 15 | 285 | 8.0 | 14.5 | 0.00 | 0.00 | 0.00 | 80 | 1018.6 |
| 20260506233049 | 15 | 289 | 6.4 | 16.1 | 0.00 | 0.00 | 0.00 | 81 | 1018.7 |
| 20260506232543 | 15 | 299 | 6.4 | 16.1 | 0.00 | 0.00 | 0.00 | 81 | 1018.7 |
| 20260506232044 | 15 | 315 | 9.7 | 16.1 | 0.00 | 0.00 | 0.00 | 80 | 1018.7 |
| 20260506231552 | 15 | 311 | 8.0 | 14.5 | 0.00 | 0.00 | 0.00 | 79 | 1018.8 |
| 20260506231044 | 15 | 304 | 8.0 | 14.5 | 0.00 | 0.00 | 0.00 | 79 | 1018.8 |
| 20260506230543 | 15 | 308 | 8.0 | 16.1 | 0.00 | 0.00 | 0.00 | 80 | 1018.9 |
| 20260506230046 | 15 | 311 | 9.7 | 16.1 | 0.00 | 0.00 | 0.00 | 80 | 1018.9 |
| 20260506225544 | 15 | 297 | 8.0 | 16.1 | 0.00 | 0.00 | 0.00 | 80 | 1019.0 |
| 20260506225043 | 15 | 292 | 9.7 | 14.5 | 0.00 | 0.00 | 0.00 | 79 | 1019.1 |
| 20260506224600 | 15 | 306 | 8.0 | 16.1 | 0.00 | 0.00 | 0.00 | 80 | 1019.2 |
| 20260506224042 | 15 | 293 | 8.0 | 16.1 | 0.00 | 0.00 | 0.00 | 78 | 1019.2 |
| 20260506223546 | 16 | 315 | 8.0 | 16.1 | 0.00 | 0.00 | 0.00 | 77 | 1019.3 |
| 20260506223052 | 16 | 296 | 9.7 | 16.1 | 0.00 | 0.00 | 0.00 | 76 | 1019.2 |
| 20260506222547 | 16 | 298 | 9.7 | 16.1 | 0.00 | 0.00 | 0.00 | 75 | 1019.2 |
| 20260506222044 | 17 | 309 | 8.0 | 16.1 | 0.00 | 0.00 | 0.00 | 75 | 1019.3 |
| 20260506221554 | 17 | 288 | 8.0 | 14.5 | 0.00 | 0.00 | 0.00 | 75 | 1019.3 |
| 20260506221043 | 17 | 291 | 8.0 | 14.5 | 0.00 | 0.00 | 0.00 | 74 | 1019.3 |
| 20260506220544 | 17 | 308 | 6.4 | 14.5 | 0.00 | 0.00 | 0.00 | 74 | 1019.4 |
| 20260506220049 | 17 | 295 | 4.8 | 14.5 | 0.00 | 0.00 | 0.00 | 73 | 1019.4 |
| 20260506215544 | 17 | 304 | 8.0 | 14.5 | 0.00 | 0.00 | 0.00 | 73 | 1019.4 |
| 20260506215043 | 17 | 296 | 6.4 | 12.9 | 0.00 | 0.00 | 0.00 | 74 | 1019.4 |
| 20260506214607 | 17 | 324 | 4.8 | 12.9 | 0.00 | 0.00 | 0.00 | 73 | 1019.6 |
| 20260506214044 | 17 | 301 | 4.8 | 12.9 | 0.00 | 0.00 | 0.00 | 74 | 1019.5 |
| 20260506213544 | 17 | 304 | 4.8 | 14.5 | 0.00 | 0.00 | 0.00 | 74 | 1019.6 |
| 20260506213051 | 17 | 321 | 4.8 | 16.1 | 0.00 | 0.00 | 0.00 | 74 | 1019.6 |
| 20260506212544 | 17 | 298 | 8.0 | 16.1 | 0.00 | 0.00 | 0.00 | 73 | 1019.5 |
| 20260506212043 | 17 | 305 | 8.0 | 14.5 | 0.00 | 0.00 | 0.00 | 73 | 1019.7 |
| 20260506211548 | 17 | 309 | 6.4 | 14.5 | 0.00 | 0.00 | 0.00 | 73 | 1019.6 |
| 20260506211043 | 17 | 326 | 8.0 | 14.5 | 0.00 | 0.00 | 0.00 | 72 | 1019.7 |
| 20260506210543 | 18 | 309 | 8.0 | 12.9 | 0.00 | 0.00 | 0.00 | 72 | 1019.6 |
| 20260506210055 | 17 | 301 | 6.4 | 12.9 | 0.00 | 0.00 | 0.00 | 72 | 1019.7 |
| 20260506205544 | 17 | 319 | 4.8 | 14.5 | 0.00 | 0.00 | 0.00 | 72 | 1019.7 |
| 20260506205044 | 17 | 295 | 6.4 | 14.5 | 0.00 | 0.00 | 0.00 | 71 | 1019.7 |
| 20260506204604 | 18 | 309 | 6.4 | 12.9 | 0.00 | 0.00 | 0.00 | 71 | 1019.8 |
| 20260506204043 | 17 | 325 | 3.2 | 8.0 | 0.00 | 0.00 | 0.00 | 73 | 1019.7 |
| 20260506203544 | 17 | 328 | 3.2 | 11.3 | 0.00 | 0.00 | 0.00 | 71 | 1019.8 |
| 20260506203055 | 17 | 305 | 3.2 | 11.3 | 0.00 | 0.00 | 0.00 | 71 | 1019.8 |
| 20260506202543 | 17 | 333 | 4.8 | 12.9 | 0.00 | 0.00 | 0.00 | 72 | 1020.0 |
| 20260506202045 | 17 | 331 | 4.8 | 16.1 | 0.00 | 0.00 | 0.00 | 72 | 1020.0 |
| 20260506201551 | 17 | 307 | 4.8 | 16.1 | 0.00 | 0.00 | 0.00 | 70 | 1020.0 |
| 20260506201043 | 18 | 318 | 3.2 | 8.0 | 0.00 | 0.00 | 0.00 | 70 | 1020.0 |
| 20260506200544 | 17 | 153 | 3.2 | 8.0 | 0.00 | 0.00 | 0.00 | 71 | 1020.1 |
| 20260506200050 | 17 | 301 | 4.8 | 8.0 | 0.00 | 0.00 | 0.00 | 71 | 1020.1 |
| 20260506195543 | 17 | 276 | 3.2 | 8.0 | 0.00 | 0.00 | 0.00 | 69 | 1020.0 |
| 20260506195046 | 18 | 312 | 3.2 | 12.9 | 0.00 | 0.00 | 0.00 | 67 | 1020.0 |
| 20260506194600 | 18 | 305 | 4.8 | 12.9 | 0.00 | 0.00 | 0.00 | 66 | 1020.1 |
| 20260506194049 | 19 | 316 | 1.6 | 8.0 | 0.00 | 0.00 | 0.00 | 63 | 1020.0 |
| 20260506193544 | 20 | 355 | 1.6 | 6.4 | 0.00 | 0.00 | 0.00 | 62 | 1020.0 |
| 20260506193052 | 20 | 0 | 1.6 | 8.0 | 0.00 | 0.00 | 0.00 | 60 | 1020.0 |
| 20260506192558 | 20 | 78 | 1.6 | 8.0 | 0.00 | 0.00 | 0.00 | 60 | 1020.1 |
| 20260506192044 | 20 | 69 | 3.2 | 6.4 | 0.00 | 0.00 | 0.00 | 61 | 1020.1 |
| 20260506191555 | 19 | 0 | 3.2 | 11.3 | 0.00 | 0.00 | 0.00 | 60 | 1020.2 |
| 20260506191044 | 19 | 108 | 3.2 | 11.3 | 0.00 | 0.00 | 0.00 | 62 | 1020.2 |
| 20260506190543 | 19 | 138 | 3.2 | 11.3 | 0.00 | 0.00 | 0.00 | 61 | 1020.2 |
| 20260506190053 | 19 | 60 | 3.2 | 9.7 | 0.00 | 0.00 | 0.00 | 60 | 1020.2 |
| 20260506185543 | 19 | 90 | 3.2 | 9.7 | 0.00 | 0.00 | 0.00 | 63 | 1020.2 |
| 20260506185043 | 18 | 109 | 0.0 | 8.0 | 0.00 | 0.00 | 0.00 | 67 | 1020.2 |
| 20260506184556 | 18 | 141 | 1.6 | 8.0 | 0.00 | 0.00 | 0.00 | 67 | 1020.2 |
| 20260506184044 | 18 | 61 | 0.0 | 8.0 | 0.00 | 0.00 | 0.00 | 69 | 1020.3 |
| 20260506183545 | 17 | 0 | 1.6 | 8.0 | 0.00 | 0.00 | 0.00 | 72 | 1020.3 |
| 20260506183100 | 17 | 0 | 0.0 | 4.8 | 0.00 | 0.00 | 0.00 | 72 | 1020.3 |
| 20260506182543 | 16 | 317 | 1.6 | 4.8 | 0.00 | 0.00 | 0.00 | 74 | 1020.3 |
| 20260506182043 | 16 | 311 | 1.6 | 4.8 | 0.00 | 0.00 | 0.00 | 74 | 1020.5 |
| 20260506181559 | 16 | 320 | 0.0 | 4.8 | 0.00 | 0.00 | 0.00 | 74 | 1020.5 |
| 20260506181043 | 16 | 207 | 1.6 | 3.2 | 0.00 | 0.00 | 0.00 | 75 | 1020.3 |
| 20260506180544 | 16 | 190 | 1.6 | 3.2 | 0.00 | 0.00 | 0.00 | 75 | 1020.3 |
| 20260506180052 | 16 | 189 | 1.6 | 4.8 | 0.00 | 0.00 | 0.00 | 74 | 1020.2 |
| 20260506175543 | 16 | 0 | 0.0 | 4.8 | 0.00 | 0.00 | 0.00 | 76 | 1020.3 |
| 20260506175047 | 15 | 0 | 0.0 | 1.6 | 0.00 | 0.00 | 0.00 | 77 | 1020.3 |
| 20260506174555 | 15 | 0 | 0.0 | 6.4 | 0.00 | 0.00 | 0.00 | 77 | 1020.3 |
| 20260506174046 | 15 | 0 | 1.6 | 6.4 | 0.00 | 0.00 | 0.00 | 78 | 1020.2 |
| 20260506173544 | 15 | 289 | 1.6 | 6.4 | 0.00 | 0.00 | 0.00 | 78 | 1020.2 |
| 20260506173051 | 15 | 257 | 1.6 | 6.4 | 0.00 | 0.00 | 0.00 | 79 | 1020.2 |
| 20260506172543 | 14 | 233 | 0.0 | 4.8 | 0.00 | 0.00 | 0.00 | 79 | 1020.2 |
| 20260506172045 | 14 | 0 | 1.6 | 4.8 | 0.00 | 0.00 | 0.00 | 78 | 1020.2 |
| 20260506171557 | 14 | 281 | 1.6 | 6.4 | 0.00 | 0.00 | 0.00 | 79 | 1020.2 |
| 20260506171044 | 14 | 0 | 1.6 | 6.4 | 0.00 | 0.00 | 0.00 | 80 | 1020.3 |
| 20260506170544 | 14 | 246 | 0.0 | 8.0 | 0.00 | 0.00 | 0.00 | 80 | 1020.3 |
| 20260506170057 | 14 | 102 | 1.6 | 8.0 | 0.00 | 0.00 | 0.00 | 80 | 1020.3 |
| 20260506165543 | 13 | 0 | 1.6 | 9.7 | 0.00 | 0.00 | 0.00 | 80 | 1020.2 |
| 20260506165044 | 13 | 146 | 1.6 | 9.7 | 0.00 | 0.00 | 0.00 | 80 | 1020.3 |
| 20260506164601 | 13 | 150 | 3.2 | 9.7 | 0.00 | 0.00 | 0.00 | 80 | 1020.2 |
| 20260506164043 | 13 | 0 | 0.0 | 4.8 | 0.00 | 0.00 | 0.00 | 81 | 1020.2 |
| 20260506163543 | 13 | 0 | 0.0 | 8.0 | 0.00 | 0.00 | 0.00 | 82 | 1020.3 |
| 20260506163105 | 13 | 0 | 1.6 | 8.0 | 0.00 | 0.00 | 0.00 | 82 | 1020.2 |
| 20260506162543 | 13 | 157 | 3.2 | 8.0 | 0.00 | 0.00 | 0.00 | 81 | 1020.3 |
| 20260506162045 | 13 | 146 | 1.6 | 6.4 | 0.00 | 0.00 | 0.00 | 82 | 1020.2 |
| 20260506161604 | 13 | 0 | 3.2 | 6.4 | 0.00 | 0.00 | 0.00 | 82 | 1020.3 |
| 20260506161043 | 13 | 104 | 1.6 | 9.7 | 0.00 | 0.00 | 0.00 | 83 | 1020.2 |
| 20260506160544 | 13 | 143 | 1.6 | 9.7 | 0.00 | 0.00 | 0.00 | 83 | 1020.2 |
| 20260506160048 | 12 | 85 | 1.6 | 4.8 | 0.00 | 0.00 | 0.00 | 83 | 1020.2 |
| 20260506155543 | 12 | 82 | 1.6 | 4.8 | 0.00 | 0.00 | 0.00 | 84 | 1020.2 |
| 20260506155047 | 12 | 78 | 1.6 | 4.8 | 0.00 | 0.00 | 0.00 | 85 | 1020.1 |
| 20260506154608 | 12 | 0 | 1.6 | 4.8 | 0.00 | 0.00 | 0.00 | 86 | 1020.1 |
| 20260506154044 | 12 | 90 | 1.6 | 4.8 | 0.00 | 0.00 | 0.00 | 87 | 1020.2 |
| 20260506153544 | 11 | 84 | 1.6 | 6.4 | 0.00 | 0.00 | 0.00 | 88 | 1020.2 |
| 20260506153048 | 11 | 0 | 1.6 | 6.4 | 0.00 | 0.00 | 0.00 | 89 | 1020.2 |
| 20260506152545 | 11 | 0 | 1.6 | 4.8 | 0.00 | 0.00 | 0.00 | 89 | 1020.2 |
| 20260506152043 | 11 | 109 | 1.6 | 4.8 | 0.00 | 0.00 | 0.00 | 90 | 1020.1 |
| 20260506151558 | 11 | 111 | 1.6 | 4.8 | 0.00 | 0.00 | 0.00 | 92 | 1020.1 |
| 20260506151043 | 10 | 80 | 0.0 | 6.4 | 0.00 | 0.00 | 0.00 | 93 | 1020.2 |
| 20260506150547 | 10 | 80 | 1.6 | 6.4 | 0.00 | 0.00 | 0.00 | 93 | 1020.1 |
| 20260506150053 | 10 | 86 | 3.2 | 8.0 | 0.00 | 0.00 | 0.00 | 93 | 1020.2 |
| 20260506145546 | 10 | 71 | 3.2 | 8.0 | 0.00 | 0.00 | 0.00 | 93 | 1020.1 |
| 20260506145043 | 10 | 82 | 1.6 | 8.0 | 0.00 | 0.00 | 0.00 | 93 | 1020.1 |
| 20260506144601 | 10 | 85 | 3.2 | 6.4 | 0.00 | 0.00 | 0.00 | 93 | 1020.1 |
| 20260506144043 | 10 | 88 | 3.2 | 6.4 | 0.00 | 0.00 | 0.00 | 93 | 1020.1 |
| 20260506143544 | 10 | 77 | 3.2 | 8.0 | 0.00 | 0.00 | 0.00 | 94 | 1020.0 |
| 20260506143054 | 9 | 74 | 3.2 | 8.0 | 0.00 | 0.00 | 0.00 | 94 | 1020.0 |
| 20260506142547 | 9 | 78 | 3.2 | 8.0 | 0.00 | 0.00 | 0.00 | 94 | 1020.0 |
| 20260506142043 | 9 | 77 | 1.6 | 8.0 | 0.00 | 0.00 | 0.00 | 94 | 1020.0 |
| 20260506141551 | 9 | 69 | 3.2 | 8.0 | 0.00 | 0.00 | 0.00 | 94 | 1019.9 |
| 20260506141043 | 9 | 81 | 3.2 | 6.4 | 0.00 | 0.00 | 0.00 | 94 | 1020.0 |
| 20260506140543 | 9 | 82 | 1.6 | 6.4 | 0.00 | 0.00 | 0.00 | 94 | 1019.8 |
| 20260506140059 | 8 | 0 | 0.0 | 6.4 | 0.00 | 0.00 | 0.00 | 94 | 1019.8 |
| 20260506135543 | 8 | 100 | 0.0 | 4.8 | 0.00 | 0.00 | 0.00 | 94 | 1019.7 |
| 20260506135045 | 8 | 100 | 0.0 | 6.4 | 0.00 | 0.00 | 0.00 | 94 | 1019.8 |
| 20260506134557 | 8 | 100 | 0.0 | 6.4 | 0.00 | 0.00 | 0.00 | 94 | 1019.7 |
| 20260506134044 | 8 | 0 | 1.6 | 4.8 | 0.00 | 0.00 | 0.00 | 94 | 1019.6 |
| 20260506133543 | 8 | 88 | 1.6 | 4.8 | 0.00 | 0.00 | 0.00 | 94 | 1019.5 |
| 20260506133102 | 8 | 79 | 0.0 | 4.8 | 0.00 | 0.00 | 0.00 | 94 | 1019.4 |
| 20260506132543 | 8 | 41 | 0.0 | 4.8 | 0.00 | 0.00 | 0.00 | 94 | 1019.5 |
| 20260506132044 | 8 | 41 | 1.6 | 4.8 | 0.00 | 0.00 | 0.00 | 94 | 1019.3 |
| 20260506131552 | 8 | 39 | 1.6 | 4.8 | 0.00 | 0.00 | 0.00 | 94 | 1019.4 |
| 20260506131043 | 8 | 15 | 1.6 | 4.8 | 0.00 | 0.00 | 0.00 | 94 | 1019.3 |
| 20260506130544 | 8 | 14 | 1.6 | 3.2 | 0.00 | 0.00 | 0.00 | 94 | 1019.3 |
| 20260506130052 | 8 | 13 | 1.6 | 3.2 | 0.00 | 0.00 | 0.00 | 93 | 1019.3 |
| 20260506125543 | 8 | 13 | 1.6 | 4.8 | 0.00 | 0.00 | 0.00 | 93 | 1019.3 |
| 20260506125044 | 8 | 13 | 1.6 | 4.8 | 0.00 | 0.00 | 0.00 | 93 | 1019.3 |
| 20260506124549 | 8 | 13 | 1.6 | 4.8 | 0.00 | 0.00 | 0.00 | 93 | 1019.3 |
| 20260506124044 | 8 | 13 | 1.6 | 4.8 | 0.00 | 0.00 | 0.00 | 94 | 1019.2 |
| 20260506123548 | 8 | 355 | 1.6 | 3.2 | 0.00 | 0.00 | 0.00 | 93 | 1019.2 |
| 20260506123051 | 8 | 355 | 1.6 | 3.2 | 0.00 | 0.00 | 0.00 | 93 | 1019.1 |
| 20260506122544 | 8 | 355 | 1.6 | 3.2 | 0.00 | 0.00 | 0.00 | 93 | 1019.1 |
| 20260506122043 | 8 | 355 | 1.6 | 3.2 | 0.00 | 0.00 | 0.00 | 93 | 1019.1 |
| 20260506121554 | 9 | 355 | 1.6 | 3.2 | 0.00 | 0.00 | 0.00 | 93 | 1019.1 |
| 20260506121044 | 9 | 0 | 0.0 | 3.2 | 0.00 | 0.00 | 0.00 | 93 | 1019.0 |
| 20260506120544 | 9 | 355 | 0.0 | 3.2 | 0.00 | 0.00 | 0.00 | 93 | 1019.0 |
| 20260506120053 | 9 | 355 | 1.6 | 3.2 | 0.00 | 0.00 | 0.00 | 93 | 1019.0 |
| 20260506115544 | 9 | 333 | 1.6 | 3.2 | 0.00 | 0.00 | 0.00 | 93 | 1018.9 |
| 20260506115043 | 9 | 327 | 0.0 | 3.2 | 0.00 | 0.00 | 0.00 | 93 | 1019.0 |
| 20260506114601 | 9 | 327 | 0.0 | 3.2 | 0.00 | 0.00 | 0.00 | 93 | 1018.9 |
| 20260506114043 | 9 | 327 | 1.6 | 3.2 | 0.00 | 0.00 | 0.00 | 93 | 1018.9 |
| 20260506113543 | 9 | 0 | 1.6 | 3.2 | 0.00 | 0.00 | 0.00 | 93 | 1018.9 |
| 20260506113100 | 9 | 327 | 0.0 | 3.2 | 0.00 | 0.00 | 0.00 | 93 | 1018.8 |
| 20260506112544 | 9 | 0 | 0.0 | 3.2 | 0.00 | 0.00 | 0.00 | 93 | 1018.9 |
| 20260506112044 | 9 | 0 | 0.0 | 3.2 | 0.00 | 0.00 | 0.00 | 93 | 1018.8 |
| 20260506111602 | 9 | 0 | 1.6 | 3.2 | 0.00 | 0.00 | 0.00 | 93 | 1018.9 |
| 20260506111046 | 9 | 327 | 1.6 | 3.2 | 0.00 | 0.00 | 0.00 | 94 | 1018.8 |
| 20260506110544 | 9 | 327 | 1.6 | 3.2 | 0.00 | 0.00 | 0.00 | 94 | 1018.7 |
| 20260506110052 | 9 | 327 | 0.0 | 3.2 | 0.00 | 0.00 | 0.00 | 93 | 1018.7 |
| 20260506105544 | 9 | 327 | 0.0 | 3.2 | 0.00 | 0.00 | 0.00 | 93 | 1018.7 |
| 20260506105043 | 9 | 327 | 1.6 | 3.2 | 0.00 | 0.00 | 0.00 | 94 | 1018.6 |
| 20260506104556 | 9 | 327 | 1.6 | 3.2 | 0.00 | 0.00 | 0.00 | 94 | 1018.6 |
| 20260506104044 | 9 | 0 | 0.0 | 3.2 | 0.00 | 0.00 | 0.00 | 94 | 1018.7 |
| 20260506103543 | 9 | 0 | 0.0 | 1.6 | 0.00 | 0.00 | 0.00 | 94 | 1018.6 |
| 20260506103057 | 8 | 0 | 0.0 | 3.2 | 0.00 | 0.00 | 0.00 | 94 | 1018.6 |
| 20260506102544 | 8 | 0 | 0.0 | 3.2 | 0.00 | 0.00 | 0.00 | 94 | 1018.6 |
| 20260506102044 | 8 | 327 | 1.6 | 4.8 | 0.00 | 0.00 | 0.00 | 94 | 1018.7 |
| 20260506101552 | 8 | 327 | 1.6 | 6.4 | 0.00 | 0.00 | 0.00 | 94 | 1018.7 |
| 20260506101046 | 8 | 327 | 1.6 | 6.4 | 0.00 | 0.00 | 0.00 | 94 | 1018.7 |
| 20260506100543 | 8 | 327 | 3.2 | 8.0 | 0.00 | 0.00 | 0.00 | 94 | 1018.7 |
| 20260506100218 | 8 | 327 | 3.2 | 8.0 | 0.00 | 0.00 | 0.00 | 94 | 1018.7 |
| 20260506095544 | 8 | 315 | 4.8 | 8.0 | 0.00 | 0.00 | 0.00 | 94 | 1018.6 |
| 20260506095047 | 8 | 313 | 4.8 | 6.4 | 0.00 | 0.00 | 0.00 | 94 | 1018.7 |
| 20260506094556 | 8 | 317 | 4.8 | 6.4 | 0.00 | 0.00 | 0.00 | 95 | 1018.8 |
| 20260506094044 | 8 | 317 | 3.2 | 8.0 | 0.00 | 0.00 | 0.00 | 95 | 1018.8 |
| 20260506093544 | 8 | 316 | 4.8 | 8.0 | 0.00 | 0.00 | 0.00 | 95 | 1018.8 |
| 20260506093102 | 8 | 316 | 3.2 | 4.8 | 0.00 | 0.00 | 0.00 | 95 | 1018.8 |
| 20260506092546 | 8 | 316 | 3.2 | 4.8 | 0.00 | 0.00 | 0.00 | 95 | 1018.8 |
| 20260506092045 | 8 | 316 | 1.6 | 4.8 | 0.00 | 0.00 | 0.00 | 95 | 1018.7 |
| 20260506091551 | 8 | 316 | 3.2 | 6.4 | 0.00 | 0.00 | 0.00 | 95 | 1018.7 |
| 20260506091047 | 8 | 316 | 3.2 | 8.0 | 0.00 | 0.00 | 0.00 | 95 | 1018.7 |
| 20260506090544 | 8 | 316 | 3.2 | 8.0 | 0.00 | 0.00 | 0.00 | 95 | 1018.6 |
| 20260506090057 | 8 | 316 | 4.8 | 8.0 | 0.00 | 0.00 | 0.00 | 94 | 1018.6 |
| 20260506085544 | 8 | 312 | 3.2 | 8.0 | 0.00 | 0.00 | 0.00 | 94 | 1018.6 |
| 20260506085044 | 8 | 317 | 3.2 | 6.4 | 0.00 | 0.00 | 0.00 | 94 | 1018.6 |
| 20260506084600 | 8 | 317 | 1.6 | 6.4 | 0.00 | 0.00 | 0.00 | 95 | 1018.6 |
| 20260506084044 | 8 | 317 | 3.2 | 6.4 | 0.00 | 0.00 | 0.00 | 95 | 1018.6 |
| 20260506083545 | 8 | 315 | 3.2 | 8.0 | 0.00 | 0.00 | 0.00 | 95 | 1018.6 |
| 20260506083059 | 8 | 315 | 4.8 | 8.0 | 0.00 | 0.00 | 0.00 | 95 | 1018.7 |
| 20260506082542 | 8 | 313 | 4.8 | 8.0 | 0.00 | 0.00 | 0.00 | 95 | 1018.7 |
| 20260506082043 | 8 | 312 | 4.8 | 8.0 | 0.00 | 0.00 | 0.00 | 95 | 1018.8 |
| 20260506081558 | 8 | 312 | 3.2 | 8.0 | 0.00 | 0.00 | 0.00 | 95 | 1018.7 |
| 20260506081043 | 8 | 309 | 4.8 | 8.0 | 0.00 | 0.00 | 0.00 | 94 | 1018.7 |
| 20260506080543 | 8 | 307 | 4.8 | 8.0 | 0.00 | 0.00 | 0.00 | 94 | 1018.8 |
| 20260506073053 | 8 | 309 | 4.8 | 12.9 | 0.00 | 0.00 | 0.00 | 94 | 1018.4 |
| 20260506072543 | 8 | 308 | 4.8 | 9.7 | 0.00 | 0.00 | 0.00 | 95 | 1018.3 |
| 20260506072043 | 8 | 299 | 4.8 | 8.0 | 0.00 | 0.00 | 0.00 | 95 | 1018.3 |
| 20260506071551 | 8 | 313 | 4.8 | 8.0 | 0.00 | 0.00 | 0.00 | 95 | 1018.3 |
| 20260506071042 | 8 | 313 | 4.8 | 8.0 | 0.00 | 0.00 | 0.00 | 95 | 1018.3 |
| 20260506070543 | 8 | 315 | 4.8 | 8.0 | 0.00 | 0.00 | 0.00 | 95 | 1018.3 |
| 20260506062042 | 8 | 313 | 4.8 | 8.0 | 0.00 | 0.00 | 0.00 | 95 | 1018.2 |
| 20260506061555 | 8 | 313 | 4.8 | 8.0 | 0.00 | 0.00 | 0.00 | 95 | 1018.1 |
| 20260506061046 | 8 | 312 | 4.8 | 8.0 | 0.00 | 0.00 | 0.00 | 95 | 1018.0 |
| 20260506060543 | 9 | 315 | 4.8 | 11.3 | 0.00 | 0.00 | 0.00 | 95 | 1018.1 |